Location: General Nathan Twining Observatory
(34.5931°N, 106.8201°W)
Time: 18:09:14
(UTC-06:00)

SJ-6B - Pass Details

Date: 20 September 2017
Orbit: 510 x 584 km, 97.7° (Epoch: 16 October)

Event Time Altitude Azimuth Distance (km) Brightness Sun altitude
Rises 20:01:21 0° 159° (SSE) 2,775 6.1 -12.1°
Reaches altitude 10° 20:03:32 10° 156° (SSE) 1,873 5.2 -12.5°
Maximum altitude 20:07:32 61° 76° (ENE) 644 2.9 -13.3°
Drops below altitude 10° 20:11:29 10° 356° (N) 1,847 5.7 -14.1°
Sets 20:13:37 0° 353° (N) 2,734 6.6 -14.6°
